Weather History for Woensdrecht, Netherlands

Change the Weather History Date:

Monday, February 18, 2013

  Actual Average Record
Temperature  
Mean Temperature 32 °F -  
Max Temperature 44 °F 47 °F 53 °F (1998)
Min Temperature 21 °F 35 °F 15 °F (2003)
Degree Days  
Heating Degree Days 32    
Moisture  
Dew Point 28 °F    
Average Humidity 93    
Maximum Humidity 100    
Minimum Humidity 57    
Precipitation  
Precipitation 0.00 in - - ()
Sea Level Pressure  
Sea Level Pressure 30.16 in    
Wind  
Wind Speed 3 mph ()    
Max Wind Speed 7 mph    
Max Gust Speed -    
Visibility 3.1 miles    
Events Fog    
Averages and records for this station are not official NWS values.
T = Trace of Precipitation, MM = Missing Value Source: Averaged Metar Reports

Daily Weather History Graph

Daily Weather History Graph

Search for Another Location

Airport:

Trip Planner

Search our weather history database for the weather conditions in past years. The results will help you decide how hot, cold, wet, or windy it might be!

Date:

Astronomy

Feb. 18, 2013 Rise Set
Actual Time 7:50 AM CET 6:03 PM CET
Civil Twilight 7:16 AM CET 6:37 PM CET
Nautical Twilight 6:37 AM CET 7:16 PM CET
Astronomical Twilight 5:58 AM CET 7:55 PM CET
Moon 11:18 AM CET (2/18) 2:34 AM CET (2/18)
Length of Visible Light 11h 21m
Length of Day
10h 13m
First Quarter, 56% of the Moon is Illuminated
Feb 18
First Quarter
Feb 25
Full
Mar 4
Last Quarter
Mar 11
New
Mar 19
First Quarter

Hourly Weather History & Observations

Time (CET) Temp. Windchill Dew Point Humidity Pressure Visibility Wind Dir Wind Speed Gust Speed Precip Events Conditions
12:00 AM 24.8 °F 17.9 °F 24.8 °F 100% 30.18 in 0.9 mi ENE 5.8 mph - N/A   Mist
12:08 AM 24.8 °F 19.1 °F 24.8 °F 100% 30.18 in - ENE 4.6 mph - N/A Fog Light Freezing Fog
12:25 AM 28.4 °F 23.3 °F 28.4 °F 100% 30.18 in 0.3 mi East 4.6 mph - N/A Fog Light Freezing Fog
12:33 AM 30.2 °F 25.4 °F 30.2 °F 100% 30.18 in 1.2 mi East 4.6 mph - N/A   Mist
12:43 AM 28.4 °F 23.3 °F 28.4 °F 100% 30.18 in 1.4 mi East 4.6 mph - N/A   Mist
12:55 AM 28.4 °F 23.3 °F 28.4 °F 100% 30.18 in 1.3 mi East 4.6 mph - N/A   Mist
1:04 AM 24.8 °F 19.1 °F 24.8 °F 100% 30.18 in 0.9 mi East 4.6 mph - N/A   Mist
1:11 AM 24.8 °F 19.1 °F 24.8 °F 100% 30.18 in 1.1 mi East 4.6 mph - N/A   Mist
1:25 AM 26.6 °F 21.2 °F 26.6 °F 100% 30.18 in 1.5 mi East 4.6 mph - N/A   Mist
1:55 AM 24.8 °F 20.5 °F 24.8 °F 100% 30.18 in 1.2 mi ENE 3.5 mph - N/A   Mist
2:25 AM 24.8 °F 20.5 °F 24.8 °F 100% 30.18 in 1.1 mi East 3.5 mph - N/A   Mist
2:29 AM 24.8 °F 20.5 °F 23.0 °F 93% 30.18 in 0.5 mi East 3.5 mph - N/A Fog Light Freezing Fog
2:33 AM 24.8 °F 20.5 °F 24.8 °F 100% 30.18 in - ENE 3.5 mph - N/A Fog Light Freezing Fog
2:55 AM 24.8 °F 19.1 °F 23.0 °F 93% 30.18 in 0.6 mi ENE 4.6 mph - N/A Fog Light Freezing Fog
2:59 AM 24.8 °F 19.1 °F 24.8 °F 100% 30.18 in 1.1 mi ENE 4.6 mph - N/A   Mist
3:04 AM 24.8 °F 17.9 °F 24.8 °F 100% 30.18 in 0.9 mi ENE 5.8 mph - N/A   Mist
3:08 AM 24.8 °F 17.9 °F 24.8 °F 100% 30.18 in 1.1 mi ENE 5.8 mph - N/A   Mist
3:09 AM 24.8 °F 17.9 °F 24.8 °F 100% 30.18 in 0.9 mi ENE 5.8 mph - N/A   Mist
3:16 AM 24.8 °F 19.1 °F 24.8 °F 100% 30.18 in 1.0 mi East 4.6 mph - N/A   Mist
3:21 AM 24.8 °F 19.1 °F 24.8 °F 100% 30.18 in 0.9 mi East 4.6 mph - N/A   Mist
3:25 AM 24.8 °F 19.1 °F 24.8 °F 100% 30.18 in 1.1 mi ENE 4.6 mph - N/A   Mist
3:30 AM 24.8 °F 19.1 °F 24.8 °F 100% 30.18 in 0.9 mi ENE 4.6 mph - N/A   Mist
3:35 AM 24.8 °F 19.1 °F 24.8 °F 100% 30.18 in 1.1 mi ENE 4.6 mph - N/A   Mist
3:39 AM 24.8 °F 19.1 °F 24.8 °F 100% 30.15 in 0.8 mi ENE 4.6 mph - N/A   Mist
3:55 AM 26.6 °F 21.2 °F 24.8 °F 93% 30.15 in 0.7 mi ENE 4.6 mph - N/A   Mist
3:59 AM 26.6 °F 22.6 °F 24.8 °F 93% 30.15 in 0.4 mi ENE 3.5 mph - N/A Fog Light Freezing Fog
4:25 AM 24.8 °F 20.5 °F 24.8 °F 100% 30.15 in 0.2 mi ENE 3.5 mph - N/A Fog Light Freezing Fog
4:55 AM 26.6 °F 21.2 °F 26.6 °F 100% 30.15 in 0.2 mi ENE 4.6 mph - N/A Fog Light Freezing Fog
5:25 AM 24.8 °F 20.5 °F 24.8 °F 100% 30.15 in 0.2 mi ENE 3.5 mph - N/A Fog Light Freezing Fog
5:30 AM 24.8 °F 20.5 °F 24.8 °F 100% 30.15 in 0.6 mi ENE 3.5 mph - N/A   Mist
5:31 AM 24.8 °F 20.5 °F 24.8 °F 100% 30.15 in - ENE 3.5 mph - N/A Fog Light Freezing Fog
5:55 AM 26.6 °F - 24.8 °F 93% 30.15 in 0.3 mi ENE 2.3 mph - N/A Fog Light Freezing Fog
6:25 AM 23.0 °F 18.4 °F 23.0 °F 100% 30.15 in 0.2 mi ENE 3.5 mph - N/A Fog Light Freezing Fog
6:29 AM 24.8 °F 20.5 °F 24.8 °F 100% 30.15 in 0.6 mi ENE 3.5 mph - N/A Fog Light Freezing Fog
6:33 AM 23.0 °F 18.4 °F 23.0 °F 100% 30.15 in 0.4 mi East 3.5 mph - N/A Fog Light Freezing Fog
6:37 AM 23.0 °F 18.4 °F 21.2 °F 93% 30.15 in 1.0 mi ENE 3.5 mph - N/A   Mist
6:42 AM 21.2 °F 16.4 °F 21.2 °F 100% 30.15 in 0.8 mi ENE 3.5 mph - N/A   Mist
6:45 AM 23.0 °F 18.4 °F 21.2 °F 93% 30.15 in 1.1 mi ENE 3.5 mph - N/A   Mist
6:50 AM 23.0 °F 18.4 °F 21.2 °F 93% 30.15 in 0.9 mi ENE 3.5 mph - N/A   Mist
6:55 AM 23.0 °F 18.4 °F 21.2 °F 93% 30.15 in - ENE 3.5 mph - N/A Fog Light Freezing Fog
6:59 AM 23.0 °F 18.4 °F 21.2 °F 93% 30.15 in 0.6 mi ENE 3.5 mph - N/A Fog Light Freezing Fog
7:13 AM 23.0 °F 18.4 °F 23.0 °F 100% 30.15 in 0.7 mi ENE 3.5 mph - N/A   Mist
7:17 AM 23.0 °F 18.4 °F 21.2 °F 93% 30.15 in - ENE 3.5 mph - N/A Fog Light Freezing Fog
7:25 AM 23.0 °F 17.0 °F 23.0 °F 100% 30.15 in 0.3 mi ENE 4.6 mph - N/A Fog Light Freezing Fog
7:47 AM 23.0 °F - 23.0 °F 100% 30.15 in 1.1 mi ENE 2.3 mph - N/A   Mist
7:51 AM 23.0 °F - 21.2 °F 93% 30.15 in 1.3 mi ENE 2.3 mph - N/A   Mist
7:55 AM 23.0 °F - 21.2 °F 93% 30.15 in - ENE 2.3 mph - N/A   Mist
7:59 AM 23.0 °F - 23.0 °F 100% 30.15 in 3.1 mi ENE 2.3 mph - N/A   Mist
8:03 AM 23.0 °F - 23.0 °F 100% 30.15 in - ENE 2.3 mph - N/A   Mist
8:25 AM 23.0 °F 18.4 °F 21.2 °F 93% 30.18 in - ENE 3.5 mph - N/A   Mist
8:38 AM 24.8 °F 20.5 °F 23.0 °F 93% 30.18 in 2.8 mi ENE 3.5 mph - N/A   Mist
8:55 AM 26.6 °F 22.6 °F 26.6 °F 100% 30.18 in - ENE 3.5 mph - N/A   Mist
9:25 AM 30.2 °F 26.7 °F 30.2 °F 100% 30.18 in 1.8 mi East 3.5 mph - N/A   Mist
9:43 AM 32.0 °F - 32.0 °F 100% 30.18 in 2.5 mi East 2.3 mph - N/A   Mist
9:45 AM 32.0 °F - 32.0 °F 100% 30.18 in 3.1 mi East 2.3 mph - N/A   Mist
9:51 AM 33.8 °F - 33.8 °F 100% 30.18 in - East 2.3 mph - N/A   Mist
9:55 AM 33.8 °F - 33.8 °F 100% 30.18 in 3.1 mi East 2.3 mph - N/A   Mist
10:08 AM 33.8 °F 30.8 °F 33.8 °F 100% 30.18 in 3.7 mi ESE 3.5 mph - N/A   Mist
10:25 AM 35.6 °F 32.8 °F 35.6 °F 100% 30.18 in 3.7 mi ESE 3.5 mph - N/A   Partly Cloudy
10:35 AM 35.6 °F 32.8 °F 35.6 °F 100% 30.18 in 5.0 mi East 3.5 mph - N/A   Mist
10:48 AM 37.4 °F 34.9 °F 37.4 °F 100% 30.18 in 6.2 mi East 3.5 mph - N/A   Unknown
10:55 AM 37.4 °F 34.9 °F 37.4 °F 100% 30.18 in 6.2 mi ENE 3.5 mph - N/A   Unknown
11:25 AM 39.2 °F 37.0 °F 39.2 °F 100% 30.18 in 6.2 mi East 3.5 mph - N/A   Unknown
11:55 AM 42.8 °F 41.1 °F 41.0 °F 93% 30.18 in 6.2 mi ESE 3.5 mph - N/A   Unknown
12:25 PM 44.6 °F 43.1 °F 35.6 °F 71% 30.18 in 6.2 mi ESE 3.5 mph - N/A   Unknown
12:55 PM 44.6 °F 42.2 °F 33.8 °F 66% 30.18 in 6.2 mi East 4.6 mph - N/A   Unknown
1:12 PM 44.6 °F 42.2 °F 32.0 °F 61% 30.15 in 6.2 mi East 4.6 mph - N/A   Unknown
1:25 PM 44.6 °F 43.1 °F 32.0 °F 61% 30.15 in 6.2 mi SE 3.5 mph - N/A   Partly Cloudy
1:55 PM 44.6 °F 42.2 °F 32.0 °F 61% 30.15 in 6.2 mi ESE 4.6 mph - N/A   Unknown
2:25 PM 44.6 °F 42.2 °F 32.0 °F 61% 30.15 in 6.2 mi ESE 4.6 mph - N/A   Mostly Cloudy
2:55 PM 44.6 °F 40.7 °F 32.0 °F 61% 30.15 in 6.2 mi ENE 6.9 mph - N/A   Partly Cloudy
3:25 PM 44.6 °F 41.4 °F 32.0 °F 61% 30.15 in 6.2 mi East 5.8 mph - N/A   Unknown
3:55 PM 44.6 °F 42.2 °F 32.0 °F 61% 30.15 in 6.2 mi East 4.6 mph - N/A   Partly Cloudy
3:56 PM 44.6 °F 42.2 °F 32.0 °F 61% 30.15 in 6.2 mi East 4.6 mph - N/A   Partly Cloudy
4:25 PM 44.6 °F 42.2 °F 30.2 °F 57% 30.15 in 6.2 mi East 4.6 mph - N/A   Partly Cloudy
4:55 PM 42.8 °F 40.1 °F 32.0 °F 66% 30.15 in 6.2 mi ENE 4.6 mph - N/A   Scattered Clouds
5:25 PM 42.8 °F 41.1 °F 32.0 °F 66% 30.15 in 6.2 mi East 3.5 mph - N/A   Mostly Cloudy
5:55 PM 39.2 °F - 30.2 °F 70% 30.15 in 6.2 mi East 2.3 mph - N/A   Scattered Clouds
6:25 PM 35.6 °F - 30.2 °F 81% 30.15 in 6.2 mi ENE 2.3 mph - N/A   Unknown
6:55 PM 33.8 °F - 30.2 °F 87% 30.15 in 6.2 mi ENE 2.3 mph - N/A   Unknown
7:25 PM 32.0 °F - 30.2 °F 93% 30.12 in 6.2 mi Calm Calm - N/A   Unknown
7:55 PM 30.2 °F - 28.4 °F 93% 30.12 in 6.2 mi NE 1.2 mph - N/A   Unknown
8:25 PM 30.2 °F - 28.4 °F 93% 30.12 in 5.6 mi Calm Calm - N/A   Mist
8:33 PM 30.2 °F - 28.4 °F 93% 30.12 in 4.3 mi Calm Calm - N/A   Mist
8:37 PM 30.2 °F - 28.4 °F 93% 30.15 in 5.0 mi Calm Calm - N/A   Mist
8:50 PM 28.4 °F - 28.4 °F 100% 30.15 in 6.2 mi Calm Calm - N/A   Unknown
8:55 PM 28.4 °F - 28.4 °F 100% 30.12 in 5.6 mi Calm Calm - N/A   Mist
9:02 PM 28.4 °F - 28.4 °F 100% 30.12 in 4.3 mi Calm Calm - N/A   Mist
9:06 PM 28.4 °F - 28.4 °F 100% 30.12 in 5.0 mi Calm Calm - N/A   Mist
9:15 PM 28.4 °F - 28.4 °F 100% 30.12 in 4.3 mi Calm Calm - N/A   Mist
9:20 PM 28.4 °F - 28.4 °F 100% 30.15 in 5.0 mi Calm Calm - N/A   Mist
9:25 PM 28.4 °F - 28.4 °F 100% 30.15 in 5.0 mi Calm Calm - N/A   Mist
9:29 PM 28.4 °F - 28.4 °F 100% 30.15 in 4.3 mi East 1.2 mph - N/A   Mist
9:40 PM 30.2 °F - 28.4 °F 93% 30.15 in 5.6 mi East 1.2 mph - N/A   Scattered Clouds
9:55 PM 30.2 °F - 28.4 °F 93% 30.15 in 4.3 mi ENE 1.2 mph - N/A   Mist
10:25 PM 30.2 °F - 28.4 °F 93% 30.15 in 4.3 mi East 1.2 mph - N/A   Mostly Cloudy
10:55 PM 30.2 °F - 28.4 °F 93% 30.15 in - Calm Calm - N/A   Scattered Clouds
11:05 PM 30.2 °F - 28.4 °F 93% 30.15 in 3.1 mi Calm Calm - N/A   Partly Cloudy
11:09 PM 30.2 °F - 28.4 °F 93% 30.12 in - Calm Calm - N/A   Partly Cloudy
11:10 PM 30.2 °F - 28.4 °F 93% 30.12 in 3.1 mi Calm Calm - N/A   Partly Cloudy
11:25 PM 30.2 °F - 28.4 °F 93% 30.12 in 3.1 mi Calm Calm - N/A   Mist
11:29 PM 28.4 °F - 28.4 °F 100% 30.12 in - Calm Calm - N/A   Mist
11:33 PM 28.4 °F - 28.4 °F 100% 30.12 in 3.7 mi Calm Calm - N/A   Mist
11:42 PM 28.4 °F - 28.4 °F 100% 30.12 in 1.5 mi Calm Calm - N/A   Mist
11:46 PM 28.4 °F - 28.4 °F 100% 30.12 in 3.1 mi Calm Calm - N/A   Mist
11:50 PM 28.4 °F - 28.4 °F 100% 30.12 in 2.8 mi Calm Calm - N/A   Mist
11:55 PM 28.4 °F - 28.4 °F 100% 30.12 in 3.1 mi Calm Calm - N/A   Mist